Location: B�hl
(48.6968°N, 8.1352°E)
Time: 08:25:31
(UTC+00:00)

FALCON 9 DEB - Pass Details

Date: 08 March 2021
Orbit: 371 x 390 km, 53.0° (Epoch: 12 April)

Event Time Altitude Azimuth Distance (km) Brightness Sun altitude
Rises 18:20:12 0° 295° (WNW) 2,299 8.3 -10.4°
Reaches altitude 10° 18:22:17 10° 296° (WNW) 1,440 7.0 -10.7°
Maximum altitude 18:25:30 80° 24° (NNE) 405 2.9 -11.2°
Enters shadow 18:27:40 19° 110° (ESE) 1,012 4.4 -11.6°
